SP8NFE Weather Reports


time (UTC)temp
C
wind
direction
speed
KPH
gust
KPH
rain 1hr
cm
rain 24hr
cm
rain mn
cm
humidity
%
barometer
mb
20200606162803 24 358 0.0 0.0 0.00 0.00 0.00 48 1048.4
20200606162301 25 358 0.0 0.0 0.00 0.00 0.00 49 1048.3
20200606161759 25 358 0.0 0.0 0.00 0.00 0.00 46 1048.2
20200606161257 25 358 0.0 0.0 0.00 0.00 0.00 41 1048.2
20200606160755 26 358 0.0 0.0 0.00 0.00 0.00 41 1048.2
20200606160253 26 358 0.0 0.0 0.00 0.00 0.00 40 1048.0
20200606155751 26 358 0.0 0.0 0.00 0.00 0.00 39 1048.0
20200606155249 26 358 0.0 0.0 0.00 0.00 0.00 37 1047.9
20200606154747 26 358 0.0 0.0 0.00 0.00 0.00 35 1047.9
20200606154245 26 358 0.0 0.0 0.00 0.00 0.00 35 1048.0
20200606153743 26 358 0.0 0.0 0.00 0.00 0.00 38 1048.0
20200606153242 26 358 0.0 0.0 0.00 0.00 0.00 39 1047.9
20200606152739 26 358 0.0 0.0 0.00 0.00 0.00 40 1048.0
20200606152238 26 358 0.0 0.0 0.00 0.00 0.00 39 1048.0
20200606151735 25 358 0.0 0.0 0.00 0.00 0.00 39 1048.0
20200606151234 26 358 0.0 0.0 0.00 0.00 0.00 39 1048.1
20200606150230 26 358 0.0 0.0 0.00 0.00 0.00 37 1048.1
20200606145728 26 358 0.0 0.0 0.00 0.00 0.00 38 1048.1
20200606145226 26 358 0.0 0.0 0.00 0.00 0.00 40 1048.2
20200606144724 26 358 0.0 0.0 0.00 0.00 0.00 41 1048.3
20200606143720 25 358 0.0 0.0 0.00 0.00 0.00 36 1048.3
20200606143218 25 358 0.0 0.0 0.00 0.00 0.00 37 1048.3
20200606142716 25 358 0.0 0.0 0.00 0.00 0.00 35 1048.4
20200606141712 26 358 0.0 0.0 0.00 0.00 0.00 32 1048.3
20200606141210 26 358 0.0 0.0 0.00 0.00 0.00 34 1048.3
20200606140708 26 358 0.0 0.0 0.00 0.00 0.00 32 1048.3
20200606140206 26 358 0.0 0.0 0.00 0.00 0.00 32 1048.4
20200606135704 26 358 0.0 0.0 0.00 0.00 0.00 36 1048.4
20200606134701 26 358 0.0 0.0 0.00 0.00 0.00 35 1048.5
20200606134159 26 358 0.0 0.0 0.00 0.00 0.00 34 1048.5
20200606133657 26 358 0.0 0.0 0.00 0.00 0.00 34 1048.5
20200606132653 25 358 0.0 0.0 0.00 0.00 0.00 31 1048.6
20200606130645 26 358 0.0 0.0 0.00 0.00 0.00 34 1048.8
20200606124637 26 358 0.0 0.0 0.00 0.00 0.00 31 1048.9
20200606123132 26 358 0.0 0.0 0.00 0.00 0.00 37 1048.8
20200606122629 25 358 0.0 0.0 0.00 0.00 0.00 35 1048.9
20200606121626 26 358 0.0 0.0 0.00 0.00 0.00 34 1048.9
20200606121124 26 358 0.0 0.0 0.00 0.00 0.00 32 1048.9
20200606120622 25 358 0.0 0.0 0.00 0.00 0.00 29 1049.0
20200606115116 26 358 0.0 0.0 0.00 0.00 0.00 42 1049.0
20200606114614 25 358 0.0 0.0 0.00 0.00 0.00 41 1049.1
20200606114112 25 358 0.0 0.0 0.00 0.00 0.00 40 1049.1
20200606113610 25 358 0.0 0.0 0.00 0.00 0.00 45 1049.2
20200606113112 25 358 0.0 0.0 0.00 0.00 0.00 40 1049.2
20200606111101 25 358 0.0 0.0 0.00 0.00 0.00 40 1049.4
20200606110558 25 358 0.0 0.0 0.00 0.00 0.00 46 1049.4
20200606110057 24 358 0.0 0.0 0.00 0.00 0.00 47 1049.2
20200606105554 23 358 0.0 0.0 0.00 0.00 0.00 47 1049.2
20200606105109 24 358 0.0 0.0 0.00 0.00 0.00 43 1049.2
20200606104551 24 358 0.0 0.0 0.00 0.00 0.00 40 1049.2
20200606103045 23 358 0.0 0.0 0.00 0.00 0.00 47 1049.2
20200606102543 23 358 0.0 0.0 0.00 0.00 0.00 47 1049.4
20200606102041 23 358 0.0 0.0 0.00 0.00 0.00 48 1049.4
20200606101545 23 358 0.0 0.0 0.00 0.00 0.00 50 1049.4
20200606101037 23 358 0.0 0.0 0.00 0.00 0.00 47 1049.4
20200606100535 23 358 0.0 0.0 0.00 0.00 0.00 48 1049.2
20200606100033 23 358 0.0 0.0 0.00 0.00 0.00 49 1049.2
20200606091014 22 358 0.0 0.0 0.00 0.00 0.00 57 1049.0
20200606090010 21 358 0.0 0.0 0.00 0.00 0.00 59 1049.0
20200606085508 21 358 0.0 0.0 0.00 0.00 0.00 59 1049.0
20200606085006 21 358 0.0 0.0 0.00 0.00 0.00 63 1048.9
20200606083500 20 358 0.0 0.0 0.00 0.00 0.00 64 1049.1
20200606082958 20 358 0.0 0.0 0.00 0.00 0.00 63 1049.0
20200606080448 20 358 0.0 0.0 0.00 0.00 0.00 65 1049.2
20200606075445 19 358 0.0 0.0 0.00 0.00 0.00 75 1049.4
20200606074441 19 358 0.0 0.0 0.00 0.00 0.00 72 1049.4
20200606073939 19 358 0.0 0.0 0.00 0.00 0.00 71 1049.4
20200606073438 19 358 0.0 0.0 0.00 0.00 0.00 79 1049.4
20200606072936 19 358 0.0 0.0 0.00 0.00 0.00 83 1049.4
20200606072433 18 358 0.0 0.0 0.00 0.00 0.00 83 1049.4
20200606071932 18 358 0.0 0.0 0.00 0.00 0.00 83 1049.5
20200606070927 18 358 0.0 0.0 0.00 0.00 0.00 86 1049.6
20200606065923 17 358 0.0 0.0 0.00 0.00 0.00 93 1049.5
20200606065421 17 358 0.0 0.0 0.00 0.00 0.00 95 1049.5
20200606064919 17 358 0.0 0.0 0.00 0.00 0.00 97 1049.5
20200606064417 17 358 0.0 0.0 0.00 0.00 0.00 96 1049.4
20200606063916 17 358 0.0 0.0 0.00 0.00 0.00 96 1049.4
20200606062409 17 358 0.0 0.0 0.00 0.00 0.00 97 1049.4
20200606061908 17 358 0.0 0.0 0.00 0.00 0.00 97 1049.2
20200606061406 17 358 0.0 0.0 0.00 0.00 0.00 98 1049.1
20200606060904 17 358 0.0 0.0 0.00 0.00 0.00 98 1049.1
20200606060402 16 358 0.0 0.0 0.00 0.00 0.00 98 1049.0
20200606055900 16 358 0.0 0.0 0.00 0.00 0.00 100 1048.9
20200606055358 16 358 0.0 0.0 0.00 0.00 0.00 100 1048.9
20200606054856 16 358 0.0 0.0 0.00 0.00 0.00 100 1048.8
20200606054354 16 358 0.0 0.0 0.00 0.00 0.00 100 1048.7
20200606053852 16 358 0.0 0.0 0.00 0.00 0.00 100 1048.8
20200606053350 16 358 0.0 0.0 0.00 0.00 0.00 100 1048.7
20200606051844 15 358 0.0 0.0 0.00 0.00 0.00 100 1048.5
20200606051342 15 358 0.0 0.0 0.00 0.00 0.00 100 1048.5
20200606050841 15 358 0.0 0.0 0.00 0.00 0.00 100 1048.4
20200606050338 15 358 0.0 0.0 0.00 0.00 0.00 100 1048.4
20200606045837 15 358 0.0 0.0 0.00 0.00 0.00 100 1048.3
20200606045335 15 358 0.0 0.0 0.00 0.00 0.00 100 1048.2
20200606044833 14 358 0.0 0.0 0.00 0.00 0.00 100 1048.2
20200606044331 14 358 0.0 0.0 0.00 0.00 0.00 100 1048.1
20200606043829 14 358 0.0 0.0 0.00 0.00 0.00 100 1048.1
20200605215051 16 358 0.0 0.0 0.00 0.00 0.00 92 1043.2
20200605214550 16 358 0.0 0.0 0.00 0.00 0.00 92 1043.0
20200605213546 16 358 0.0 0.0 0.00 0.00 0.00 90 1043.2
20200605213044 16 358 0.0 0.0 0.00 0.00 0.00 89 1043.2
20200605212542 16 358 0.0 0.0 0.00 0.00 0.00 88 1043.2
20200605212040 16 358 0.0 0.0 0.00 0.00 0.00 87 1043.2
20200605211538 17 358 0.0 0.0 0.00 0.00 0.00 87 1043.3
20200605211036 17 358 0.0 0.0 0.00 0.00 0.00 86 1043.3
20200605210534 17 358 0.0 0.0 0.00 0.00 0.00 86 1043.0
20200605210032 16 358 0.0 0.0 0.00 0.00 0.00 86 1043.0
20200605205530 16 358 0.0 0.0 0.00 0.00 0.00 86 1042.8
20200605205028 16 358 0.0 0.0 0.00 0.00 0.00 86 1042.7
20200605204526 16 358 0.0 0.0 0.00 0.00 0.00 87 1042.8
20200605204024 16 358 0.0 0.0 0.00 0.00 0.00 87 1042.8
20200605203522 16 358 0.0 0.0 0.00 0.00 0.00 87 1042.9
20200605203020 16 358 0.0 0.0 0.00 0.00 0.00 88 1042.8
20200605202519 16 358 0.0 0.0 0.00 0.00 0.00 88 1042.8
20200605202016 16 358 0.0 0.0 0.00 0.00 0.00 87 1042.8
20200605201515 16 358 0.0 0.0 0.00 0.00 0.00 87 1042.9
20200605201013 16 358 0.0 0.0 0.00 0.00 0.00 87 1042.7
20200605200511 16 358 0.0 0.0 0.00 0.00 0.00 87 1042.6
20200605200009 16 358 0.0 0.0 0.00 0.00 0.00 87 1042.5
20200605195507 16 358 0.0 0.0 0.00 0.00 0.00 86 1042.5
20200605195005 16 358 0.0 0.0 0.00 0.00 0.00 86 1042.4
20200605193459 16 358 0.0 0.0 0.00 0.00 0.00 84 1042.3
20200605192455 16 358 0.0 0.0 0.00 0.00 0.00 83 1042.4
20200605191953 16 358 0.0 0.0 0.00 0.00 0.00 83 1042.4
20200605191452 16 358 0.0 0.0 0.00 0.00 0.00 83 1042.3
20200605190950 17 358 0.0 0.0 0.00 0.00 0.00 82 1042.4
20200605190448 17 358 0.0 0.0 0.00 0.00 0.00 81 1042.4
20200605185946 17 358 0.0 0.0 0.00 0.00 0.00 80 1042.3
20200605185444 17 358 0.0 0.0 0.00 0.00 0.00 79 1042.5
20200605171405 18 358 0.0 0.0 0.00 0.00 0.00 74 1041.8
20200605170903 18 358 0.0 0.0 0.00 0.00 0.00 73 1041.7
20200605170401 18 358 0.0 0.0 0.00 0.00 0.00 72 1041.7
20200605165859 18 358 0.0 0.0 0.00 0.00 0.00 72 1041.8
20200605164855 18 358 0.0 0.0 0.00 0.00 0.00 72 1041.8
20200605162847 18 358 0.0 0.0 0.00 0.00 0.00 70 1042.0